When you browse on this site, cookies collect data to enhance your experience and personalize the content and advertising you see.
Visit our Privacy Policy to learn more. By continuing to use the site, you agree to this use of cookies and data.
  • En España
  • Lista de países
  • Para 7 días
  • Temperatura del agua
  • El tiempo en el mapa
  • Informadores
  • user-avatar
    Iniciar sesión

    Tiempo cada hora Dahab

    Hoy, 23 Octubre, Miércoles

    Tiempo Temperatura Precipitaciones Viento Presión Humedad
    00:00 +23°C° 0 mm 1 mps 710 mmHg 49%
    01:00 +23°C° 0 mm 1 mps 710 mmHg 49%
    02:00 +21°C° 0 mm 2 mps 710 mmHg 50%
    03:00 +22°C° 0 mm 1 mps 710 mmHg 51%
    04:00 +22°C° 0 mm 1 mps 710 mmHg 51%
    05:00 +21°C° 0 mm 1 mps 710 mmHg 52%
    06:00 +23°C° 0 mm 2 mps 711 mmHg 46%
    07:00 +25°C° 0 mm 2 mps 711 mmHg 40%
    08:00 +27°C° 0 mm 2 mps 711 mmHg 35%
    09:00 +28°C° 0 mm 3 mps 712 mmHg 32%
    10:00 +29°C° 0 mm 3 mps 712 mmHg 29%
    11:00 +30°C° 0 mm 4 mps 712 mmHg 26%
    12:00 +30°C° 0 mm 4 mps 711 mmHg 25%
    13:00 +30°C° 0 mm 5 mps 711 mmHg 25%
    14:00 +30°C° 0 mm 5 mps 710 mmHg 24%
    15:00 +29°C° 0 mm 4 mps 710 mmHg 28%
    16:00 +27°C° 0 mm 4 mps 710 mmHg 32%
    17:00 +26°C° 0 mm 3 mps 710 mmHg 36%
    18:00 +25°C° 0 mm 3 mps 711 mmHg 39%
    19:00 +24°C° 0 mm 2 mps 711 mmHg 41%
    20:00 +23°C° 0 mm 2 mps 711 mmHg 44%
    21:00 +21°C° 0 mm 2 mps 711 mmHg 45%
    22:00 +21°C° 0 mm 2 mps 712 mmHg 46%
    23:00 +20°C° 0 mm 2 mps 712 mmHg 48%

    Mañana, 24 Octubre, Jueves

    Tiempo Temperatura Precipitaciones Viento Presión Humedad
    00:00 +20°C° 0 mm 2 mps 711 mmHg 49%
    01:00 +19°C° 0 mm 2 mps 711 mmHg 51%
    02:00 +19°C° 0 mm 2 mps 711 mmHg 53%
    03:00 +18°C° 0 mm 2 mps 711 mmHg 54%
    04:00 +17°C° 0 mm 2 mps 711 mmHg 56%
    05:00 +17°C° 0 mm 2 mps 711 mmHg 57%
    06:00 +20°C° 0 mm 1 mps 711 mmHg 50%
    07:00 +22°C° 0 mm 1 mps 712 mmHg 42%
    08:00 +24°C° 0 mm 1 mps 712 mmHg 35%
    09:00 +25°C° 0 mm 2 mps 712 mmHg 32%
    10:00 +27°C° 0 mm 3 mps 712 mmHg 28%
    11:00 +28°C° 0 mm 3 mps 712 mmHg 25%
    12:00 +28°C° 0 mm 3 mps 712 mmHg 27%
    13:00 +28°C° 0 mm 3 mps 712 mmHg 29%
    14:00 +28°C° 0 mm 3 mps 711 mmHg 30%
    15:00 +26°C° 0 mm 2 mps 711 mmHg 34%
    16:00 +25°C° 0 mm 1 mps 711 mmHg 38%
    17:00 +23°C° 0 mm 1 mps 711 mmHg 41%
    18:00 +23°C° 0 mm 1 mps 711 mmHg 41%
    19:00 +22°C° 0 mm 1 mps 711 mmHg 41%
    20:00 +21°C° 0 mm 1 mps 712 mmHg 42%
    21:00 +21°C° 0 mm 1 mps 712 mmHg 43%
    22:00 +20°C° 0 mm 1 mps 712 mmHg 43%
    23:00 +20°C° 0 mm 1 mps 712 mmHg 44%

    Pasado mañana, 25 Octubre, Viernes

    Tiempo Temperatura Precipitaciones Viento Presión Humedad
    00:00 +19°C° 0 mm 1 mps 711 mmHg 45%
    01:00 +19°C° 0 mm 1 mps 711 mmHg 47%
    02:00 +18°C° 0 mm 1 mps 711 mmHg 48%
    03:00 +18°C° 0 mm 1 mps 711 mmHg 49%
    04:00 +18°C° 0 mm 1 mps 711 mmHg 50%
    05:00 +16°C° 0 mm 1 mps 711 mmHg 51%
    06:00 +19°C° 0 mm 1 mps 712 mmHg 46%
    07:00 +21°C° 0 mm 1 mps 712 mmHg 41%
    08:00 +23°C° 0 mm 1 mps 713 mmHg 37%
    09:00 +25°C° 0 mm 1 mps 713 mmHg 34%
    10:00 +26°C° 0 mm 2 mps 713 mmHg 32%
    11:00 +27°C° 0 mm 3 mps 713 mmHg 30%
    12:00 +27°C° 0 mm 2 mps 712 mmHg 31%
    13:00 +27°C° 0 mm 2 mps 712 mmHg 32%
    14:00 +27°C° 0 mm 2 mps 712 mmHg 33%
    15:00 +26°C° 0 mm 2 mps 712 mmHg 37%
    16:00 +25°C° 0 mm 2 mps 712 mmHg 41%
    17:00 +23°C° 0 mm 2 mps 712 mmHg 44%
    18:00 +23°C° 0 mm 2 mps 712 mmHg 47%
    19:00 +21°C° 0 mm 2 mps 712 mmHg 49%
    20:00 +20°C° 0 mm 2 mps 712 mmHg 52%
    21:00 +19°C° 0 mm 2 mps 712 mmHg 53%
    22:00 +19°C° 0 mm 2 mps 712 mmHg 54%
    23:00 +19°C° 0 mm 2 mps 712 mmHg 54%

    26 Octubre, Sábado

    Tiempo Temperatura Precipitaciones Viento Presión Humedad
    00:00 +18°C° 0 mm 2 mps 712 mmHg 56%
    01:00 +19°C° 0 mm 1 mps 712 mmHg 59%
    02:00 +18°C° 0 mm 1 mps 712 mmHg 61%
    03:00 +18°C° 0 mm 1 mps 712 mmHg 63%
    04:00 +18°C° 0 mm 1 mps 712 mmHg 64%
    05:00 +16°C° 0 mm 1 mps 712 mmHg 66%
    06:00 +19°C° 0 mm 1 mps 712 mmHg 59%
    07:00 +21°C° 0 mm 1 mps 713 mmHg 52%
    08:00 +23°C° 0 mm 1 mps 713 mmHg 46%
    09:00 +24°C° 0 mm 1 mps 713 mmHg 44%
    10:00 +25°C° 0 mm 2 mps 713 mmHg 42%
    11:00 +27°C° 0 mm 3 mps 713 mmHg 40%
    12:00 +26°C° 0 mm 3 mps 713 mmHg 41%
    13:00 +26°C° 0 mm 2 mps 712 mmHg 42%
    14:00 +26°C° 0 mm 2 mps 712 mmHg 44%
    15:00 +26°C° 0 mm 2 mps 712 mmHg 47%
    16:00 +25°C° 0 mm 3 mps 712 mmHg 51%
    17:00 +24°C° 0 mm 3 mps 712 mmHg 55%
    18:00 +22°C° 0 mm 3 mps 712 mmHg 59%
    19:00 +20°C° 0 mm 3 mps 712 mmHg 63%
    20:00 +19°C° 0 mm 3 mps 712 mmHg 68%
    21:00 +19°C° 0 mm 4 mps 712 mmHg 68%
    22:00 +19°C° 0 mm 4 mps 712 mmHg 69%
    23:00 +19°C° 0 mm 4 mps 712 mmHg 69%

    27 Octubre, Domingo

    Tiempo Temperatura Precipitaciones Viento Presión Humedad
    00:00 +18°C° 0 mm 4 mps 712 mmHg 71%
    01:00 +18°C° 0 mm 4 mps 712 mmHg 72%
    02:00 +18°C° 0 mm 4 mps 712 mmHg 74%
    03:00 +18°C° 0 mm 4 mps 712 mmHg 73%
    04:00 +18°C° 0 mm 4 mps 712 mmHg 73%
    05:00 +18°C° 0 mm 4 mps 712 mmHg 72%
    06:00 +19°C° 0 mm 4 mps 712 mmHg 66%
    07:00 +21°C° 0 mm 3 mps 713 mmHg 60%
    08:00 +22°C° 0 mm 3 mps 713 mmHg 53%
    09:00 +24°C° 0 mm 3 mps 713 mmHg 48%
    10:00 +26°C° 0 mm 3 mps 713 mmHg 43%
    11:00 +27°C° 0 mm 4 mps 713 mmHg 38%
    12:00 +28°C° 0 mm 4 mps 713 mmHg 38%
    13:00 +28°C° 0 mm 4 mps 712 mmHg 37%
    14:00 +28°C° 0 mm 4 mps 712 mmHg 36%
    15:00 +27°C° 0 mm 3 mps 711 mmHg 40%
    16:00 +26°C° 0 mm 3 mps 711 mmHg 44%
    17:00 +24°C° 0 mm 2 mps 711 mmHg 48%
    18:00 +24°C° 0 mm 3 mps 711 mmHg 50%
    19:00 +22°C° 0 mm 3 mps 712 mmHg 52%
    20:00 +21°C° 0 mm 4 mps 712 mmHg 54%
    21:00 +21°C° 0 mm 4 mps 712 mmHg 55%
    22:00 +21°C° 0 mm 4 mps 712 mmHg 56%
    23:00 +20°C° 0 mm 4 mps 712 mmHg 57%

    28 Octubre, Lunes

    Tiempo Temperatura Precipitaciones Viento Presión Humedad
    00:00 +20°C° 0 mm 4 mps 712 mmHg 57%
    01:00 +20°C° 0 mm 3 mps 711 mmHg 57%
    02:00 +19°C° 0 mm 3 mps 711 mmHg 57%
    03:00 +19°C° 0 mm 3 mps 711 mmHg 58%
    04:00 +18°C° 0 mm 3 mps 711 mmHg 59%
    05:00 +18°C° 0 mm 3 mps 711 mmHg 60%
    06:00 +20°C° 0 mm 3 mps 712 mmHg 53%
    07:00 +22°C° 0 mm 3 mps 712 mmHg 46%
    08:00 +25°C° 0 mm 3 mps 713 mmHg 39%
    09:00 +26°C° 0 mm 3 mps 713 mmHg 36%
    10:00 +27°C° 0 mm 4 mps 713 mmHg 33%
    11:00 +29°C° 0 mm 4 mps 713 mmHg 30%
    12:00 +29°C° 0 mm 4 mps 712 mmHg 30%
    13:00 +29°C° 0 mm 4 mps 712 mmHg 31%
    14:00 +29°C° 0 mm 4 mps 711 mmHg 32%
    15:00 +28°C° 0 mm 4 mps 711 mmHg 36%
    16:00 +26°C° 0 mm 3 mps 711 mmHg 41%
    17:00 +25°C° 0 mm 3 mps 711 mmHg 46%
    18:00 +24°C° 0 mm 3 mps 712 mmHg 46%
    19:00 +22°C° 0 mm 4 mps 712 mmHg 46%
    20:00 +21°C° 0 mm 4 mps 712 mmHg 47%
    21:00 +21°C° 0 mm 4 mps 712 mmHg 47%
    22:00 +20°C° 0 mm 4 mps 712 mmHg 47%
    23:00 +20°C° 0 mm 3 mps 712 mmHg 47%

    29 Octubre, Martes

    Tiempo Temperatura Precipitaciones Viento Presión Humedad
    00:00 +19°C° 0 mm 3 mps 712 mmHg 49%
    01:00 +19°C° 0 mm 3 mps 712 mmHg 50%
    02:00 +18°C° 0 mm 3 mps 712 mmHg 51%
    03:00 +18°C° 0 mm 2 mps 712 mmHg 51%
    04:00 +18°C° 0 mm 2 mps 712 mmHg 51%
    05:00 +17°C° 0 mm 2 mps 712 mmHg 51%
    06:00 +20°C° 0 mm 2 mps 712 mmHg 43%
    07:00 +23°C° 0 mm 2 mps 713 mmHg 36%
    08:00 +25°C° 0 mm 2 mps 713 mmHg 29%
    09:00 +27°C° 0 mm 3 mps 713 mmHg 27%
    10:00 +28°C° 0 mm 3 mps 713 mmHg 25%
    11:00 +29°C° 0 mm 3 mps 713 mmHg 24%
    12:00 +29°C° 0 mm 3 mps 713 mmHg 25%
    13:00 +29°C° 0 mm 3 mps 712 mmHg 27%
    14:00 +29°C° 0 mm 3 mps 712 mmHg 28%
    15:00 +27°C° 0 mm 2 mps 712 mmHg 34%
    16:00 +26°C° 0 mm 1 mps 712 mmHg 39%
    17:00 +24°C° 0 mm 1 mps 711 mmHg 44%
    18:00 +23°C° 0 mm 1 mps 712 mmHg 43%
    19:00 +23°C° 0 mm 2 mps 712 mmHg 42%
    20:00 +23°C° 0 mm 2 mps 712 mmHg 41%
    21:00 +21°C° 0 mm 2 mps 712 mmHg 41%
    22:00 +21°C° 0 mm 3 mps 712 mmHg 41%
    23:00 +21°C° 0 mm 3 mps 712 mmHg 40%
    Mostrar más